Location: Long Island Community Building
(39.9491°N, 99.5338°W)
Time: 05:33:57
(UTC+00:00)

Meteor 1-14 Rocket - Pass Details

Date: 06 December 2019
Orbit: 833 x 920 km, 81.3° (Epoch: 24 January)

Event Time Altitude Azimuth Distance (km) Brightness Sun altitude
Rises 12:50:14 0° 196° (SSW) 3,491 7.5 -10.4°
Reaches altitude 10° 12:52:41 10° 199° (SSW) 2,567 6.8 -10.0°
Maximum altitude 12:58:31 66° 281° (W) 988 4.3 -8.9°
Drops below altitude 10° 13:04:29 10° 4° (N) 2,620 6.6 -7.9°
Sets 13:07:00 0° 7° (N) 3,569 7.3 -7.4°
